Temperature
19 18 18 18 19 19 19 18 18 18 18 18 18 18 18 18 18 18 17 17 18 18 18 18 18 18 18 18 18 18 18 18 17 17 17 17 17 18 18 17 17 17 17
18 18 18 18 18 19 19 19 18 18 18 18 18 18 18 18 18 18 17 17 18 18 18 18 18 18 18 18 18 18 18 17 17 17 17 17 17 17 17 17 17 17 17
18 18 18 18 18 18 18 18 18 18 18 18 18 18 18 18 18 18 17 17 17 18 18 18 18 17 18 18 18 18 17 17 17 17 17 17 17 17 17 17 17 17 16
18 18 18 18 18 18 18 18 18 18 18 18 18 18 18 18 18 18 17 17 17 17 18 18 18 17 17 17 17 17 17 17 17 17 17 17 17 17 17 17 17 16 16
18 18 19 19 19 18 18 18 18 18 18 18 18 18 18 18 18 17 17 17 17 17 17 17 18 18 17 17 17 17 17 17 17 17 17 17 17 17 17 16 16 16 16
19 19 19 19 18 18 18 18 18 18 18 18 18 18 18 18 17 17 17 17 17 17 17 17 17 17 17 17 17 17 17 17 17 17 17 17 17 17 16 16 16 16 16
19 19 19 19 18 18 18 18 18 18 18 18 18 17 17 17 17 17 17 17 17 17 17 17 17 17 17 17 17 17 17 17 17 17 17 17 17 16 16 16 16 16 16
19 19 18 18 18 18 18 18 18 18 18 18 17 17 17 17 17 17 17 17 17 17 17 17 17 17 17 17 17 17 17 17 17 17 17 17 16 16 16 16 16 16 16
18 18 18 18 18 18 18 18 18 18 17 17 17 17 17 17 17 17 17 17 17 17 17 17 17 17 17 17 17 17 17 17 17 17 17 16 16 16 16 16 16 16 16
18 18 18 18 18 18 18 17 17 17 17 17 17 17 17 17 17 17 17 17 17 17 17 17 17 17 17 17 17 17 17 16 16 16 16 16 16 16 16 16 16 16 16
17 17 17 17 17 17 17 17 17 17 17 17 16 16 16 16 16 16 16 17 17 17 17 17 17 17 17 17 16 16 16 16 16 16 16 16 16 16 16 16 16 16 16
16 16 16 16 16 16 16 16 16 16 16 16 16 16 16 16 16 16 16 16 16 17 17 17 17 17 17 17 16 16 16 16 16 16 16 16 16 16 16 16 16 16 16
16 16 16 16 16 16 16 16 16 16 16 16 16 16 16 15 15 15 15 15 16 16 16 16 16 16 16 16 16 16 16 16 16 16 16 16 16 16 16 16 16 16 16
15 15 15 15 15 15 15 15 15 15 15 15 15 15 15 15 15 15 15 15 15 15 15 16 16 16 16 16 16 16 16 16 15 15 15 15 15 15 15 15 15 15 15
14 14 14 14 14 14 14 14 15 15 15 15 15 15 15 15 15 15 15 15 14 14 15 15 15 15 15 15 15 15 15 15 15 15 15 15 15 15 15 15 15 15 15
14 14 14 14 14 14 14 14 14 14 14 15 15 15 15 15 15 15 14 14 14 14 14 14 15 15 15 15 15 15 15 15 15 15 15 15 15 15 15 15 15 15 15
13 13 13 13 13 13 14 14 14 14 15 15 15 15 15 15 15 14 14 14 14 14 14 14 14 14 14 15 15 15 15 15 14 14 14 14 14 14 14 15 15 15 15
13 13 13 14 14 14 14 14 14 14 15 15 15 15 15 15 14 14 14 14 14 14 14 14 14 14 14 14 14 14 14 14 14 14 14 14 14 14 14 14 14 14 14
14 14 14 14 14 14 14 14 14 15 15 15 15 15 15 15 15 14 14 14 14 14 14 14 14 14 14 14 14 14 14 14 14 14 14 14 14 15 15 15 14 14 14
14 14 14 14 14 14 14 14 14 14 15 15 15 15 15 15 15 15 15 14 14 14 14 14 14 14 14 14 14 14 14 14 14 14 14 14 14 14 14 14 14 14 14
13 13 14 14 14 14 14 14 14 14 14 15 15 15 15 15 15 15 15 15 14 14 14 14 14 14 14 14 14 14 14 14 14 14 14 14 14 14 14 14 14 14 14
12 13 13 13 13 13 14 14 14 14 14 14 15 15 15 15 14 14 15 14 14 14 14 14 14 14 14 13 13 13 13 13 13 13 13 13 13 14 13 13 13 13 13
12 12 12 12 12 12 13 13 13 14 14 14 14 14 14 14 14 14 14 14 14 14 14 14 14 14 13 13 13 13 13 13 13 13 13 13 13 13 13 13 13 13 13
11 11 11 11 12 12 12 12 12 13 13 13 14 14 14 14 14 14 14 14 14 14 14 14 14 13 13 13 13 13 13 13 12 12 12 12 12 12 12 12 12 12 12
11 11 11 11 11 11 11 12 12 12 12 13 13 13 13 13 14 14 14 14 14 14 14 14 14 14 13 13 13 13 13 12 12 12 12 12 12 12 12 11 11 11 11
10 10 11 11 11 11 11 11 11 12 12 12 12 12 13 13 13 13 14 14 14 14 14 14 13 13 13 13 13 13 13 12 12 12 12 12 11 12 11 11 11 11 11
Wind_Speed
6 7 7 9 10 10 8 7 6 6 7 8 7 6 7 9 10 10 8 8 7 6 6 6 6 5 4 3 3 4 5 6 7 8 8 8 8 8 7 7 6 5 4
9 7 6 7 9 11 11 9 7 5 5 4 4 7 9 11 10 10 9 8 7 6 6 6 7 7 6 5 4 5 6 7 7 8 9 9 8 7 7 7 6 6 5
13 10 8 8 9 13 11 7 6 5 4 4 5 5 6 8 9 9 9 8 7 7 6 6 7 7 7 6 6 6 6 7 8 8 9 9 8 8 7 7 7 6 5
16 12 10 10 12 12 7 5 4 4 4 4 4 3 3 4 6 8 9 9 8 7 7 7 7 7 6 6 6 6 6 7 7 8 8 8 8 7 7 7 7 6 6
16 11 9 9 11 7 6 6 4 4 4 3 3 2 2 3 3 5 6 9 10 9 8 8 8 7 7 6 6 6 6 6 7 7 7 7 7 7 6 6 6 6 6
14 11 6 8 8 7 6 5 5 3 3 4 3 2 1 2 2 3 5 8 10 11 11 9 9 9 8 7 7 7 7 7 6 6 6 6 6 5 5 5 5 5 5
11 9 7 7 7 7 7 7 5 5 3 3 3 2 3 2 3 3 3 4 6 11 11 10 10 9 9 9 8 8 8 7 7 6 6 6 5 5 4 4 4 4 4
7 7 8 7 7 6 7 6 5 4 2 3 4 2 1 4 3 2 2 5 6 7 8 11 11 10 10 10 10 9 9 8 7 7 7 6 5 5 4 4 4 4 3
4 5 6 6 6 6 7 6 6 6 4 2 3 4 4 4 3 3 2 2 4 5 5 8 11 13 12 12 11 11 11 9 8 8 7 7 6 5 5 4 4 3 3
2 3 4 5 6 5 6 6 5 4 5 4 2 2 3 4 3 2 3 2 2 4 6 5 8 13 15 14 13 13 13 12 10 9 9 8 7 6 5 5 4 4 3
3 2 2 3 4 4 5 5 5 5 4 4 3 3 2 2 2 3 3 3 2 2 3 4 5 9 15 16 15 15 15 14 12 10 10 9 9 7 6 5 5 4 4
4 4 3 3 4 4 4 5 5 5 5 5 4 4 4 3 4 4 5 4 3 3 2 3 4 6 12 16 17 17 18 16 14 12 11 11 10 9 8 7 6 6 5
3 3 4 3 3 4 4 4 4 4 5 5 5 4 4 4 4 4 4 3 3 3 2 2 3 5 10 14 16 19 19 18 17 15 13 12 12 11 10 9 8 8 7
2 3 3 3 3 2 2 2 2 3 4 5 6 5 4 4 4 4 5 4 2 2 2 4 2 4 8 12 17 19 18 20 19 17 15 14 13 12 11 10 10 10 9
2 2 2 2 2 1 1 1 2 3 4 4 5 5 4 4 4 4 4 4 5 3 3 4 3 3 5 10 14 16 16 19 20 19 17 16 16 15 14 13 12 11 10
2 2 2 1 1 1 1 1 2 2 4 4 4 5 4 3 4 4 4 4 4 5 4 3 4 3 2 4 10 13 15 16 18 19 19 18 18 18 17 16 15 14 13
2 1 2 1 2 2 2 2 3 4 5 4 4 5 5 4 4 4 3 3 4 4 5 4 3 2 2 3 3 8 11 11 12 16 19 20 20 20 19 18 17 16 15
2 2 2 2 3 3 2 2 3 4 5 5 5 5 5 4 5 4 4 4 4 4 5 5 2 2 3 3 3 3 5 7 8 10 14 18 20 21 20 19 18 18 17
5 6 5 5 5 4 4 3 2 3 3 4 4 5 5 5 5 4 4 4 3 3 4 3 2 2 2 1 1 2 2 2 4 6 8 13 17 19 19 19 19 18 18
8 8 8 7 7 7 6 5 4 3 3 2 2 4 5 6 6 6 4 4 3 2 2 2 2 1 1 0 1 2 2 2 2 3 4 6 10 13 16 17 17 18 19
10 8 8 8 7 6 6 5 4 3 2 2 1 3 4 6 8 6 4 4 4 3 2 2 1 0 0 0 1 1 1 1 1 1 2 2 2 3 6 10 13 16 18
8 8 8 7 8 8 10 9 5 2 1 0 1 1 1 4 6 7 7 6 6 4 3 2 1 1 1 1 0 1 1 1 1 2 2 2 2 2 2 3 6 10 12
7 8 7 7 7 9 15 13 10 4 2 1 1 1 2 3 4 4 4 5 3 3 5 5 3 2 2 1 2 2 1 1 0 2 2 2 3 2 3 5 6 6 5
6 6 6 7 7 11 17 16 12 7 5 5 3 2 4 3 3 5 5 4 2 1 2 3 3 2 2 2 3 3 2 2 2 3 2 2 3 2 2 4 7 8 7
5 5 5 7 8 10 17 16 12 6 6 7 7 6 4 4 4 6 6 5 3 1 1 4 4 5 5 5 5 4 3 3 3 3 3 2 2 3 3 3 6 8 8
6 6 8 8 8 9 16 17 13 5 5 5 5 6 7 5 4 5 6 6 6 3 4 4 4 4 4 4 5 3 3 3 2 1 2 2 2 3 3 3 3 7 8
Wind_Direction
196 193 196 199 207 211 211 214 219 232 247 255 248 211 176 169 171 175 182 184 182 186 188 189 187 187 192 204 212 201 188 184 184 181 178 174 170 167 166 167 168 169 166
193 190 195 199 211 216 216 214 216 218 223 211 185 156 155 165 176 178 179 184 187 189 193 197 195 193 197 204 211 207 198 192 192 191 188 186 185 187 187 186 184 184 183
195 194 199 203 210 216 217 214 215 207 188 176 158 149 154 167 176 181 180 186 192 198 202 200 194 194 200 204 206 207 202 198 199 199 198 197 198 201 206 203 197 195 193
199 196 202 205 206 207 207 191 177 165 173 163 159 170 167 165 177 185 184 191 192 197 203 195 186 190 192 194 197 198 196 196 200 202 204 204 204 206 209 210 205 201 200
200 190 194 196 194 188 187 187 164 151 156 163 176 182 195 193 186 184 188 195 195 195 197 196 188 186 186 188 190 187 186 189 194 199 202 205 208 211 211 211 210 211 212
195 184 180 180 175 167 169 170 151 139 145 157 139 113 247 252 230 193 195 189 195 196 198 198 191 188 188 186 183 180 180 181 185 187 192 195 199 203 206 212 218 224 223
182 173 170 168 165 162 164 154 140 135 134 135 101 42 349 329 273 237 195 176 192 197 196 199 197 192 190 190 187 185 185 186 189 193 196 198 203 209 213 216 224 230 232
175 176 164 162 160 152 150 151 143 140 145 139 131 116 337 330 316 304 210 188 197 193 194 202 202 201 195 191 196 194 192 192 195 197 200 202 203 209 213 211 220 224 223
170 165 168 161 163 161 165 164 157 153 165 178 153 149 164 221 287 318 308 228 192 189 196 200 202 204 202 197 199 201 196 194 198 201 205 206 204 205 206 207 202 190 170
155 160 164 165 164 165 165 170 164 160 157 177 188 181 165 159 167 292 319 321 236 211 208 203 200 202 202 199 201 202 199 197 199 203 205 205 204 206 207 200 185 175 166
120 121 158 161 160 165 172 173 166 168 167 171 178 169 162 167 164 170 258 302 324 270 230 214 196 195 198 197 199 204 203 200 200 202 205 206 206 204 200 195 194 197 197
134 141 148 157 161 168 176 175 172 176 181 177 182 179 172 172 188 181 210 238 262 286 269 232 211 199 194 196 199 204 204 203 202 204 206 209 210 210 209 210 214 217 224
145 159 146 163 164 169 176 175 178 186 183 184 190 193 191 191 176 170 179 206 230 281 301 271 231 211 199 197 202 205 206 206 206 207 207 209 213 215 217 220 227 230 235
135 151 148 153 146 151 165 173 180 199 194 202 202 191 188 188 180 174 170 165 189 279 294 271 273 225 211 202 208 206 208 210 212 212 212 214 216 217 220 226 233 236 239
94 106 128 130 124 127 172 203 206 203 186 192 194 190 184 187 182 179 169 166 168 205 252 262 258 252 220 212 213 207 210 215 217 218 219 220 221 222 224 226 230 234 236
46 51 58 52 6 299 287 268 249 212 187 188 183 175 180 184 184 179 178 181 180 184 220 250 248 259 245 216 211 206 214 220 223 226 227 228 229 229 229 228 230 231 233
9 7 351 338 306 274 255 243 239 215 195 194 190 184 196 189 188 191 184 183 188 182 215 253 249 251 227 217 191 202 214 219 228 234 236 237 237 236 234 232 232 233 234
359 355 353 351 338 324 317 273 254 239 212 202 198 194 210 200 196 196 192 198 197 193 199 233 255 244 229 216 198 200 205 213 225 241 244 245 243 241 239 237 236 236 237
48 45 47 41 32 28 23 4 319 284 258 237 213 200 205 187 194 196 196 199 198 193 190 205 244 249 248 221 194 228 222 217 231 244 255 253 248 245 243 242 242 243 243
56 60 60 61 57 47 36 26 17 357 335 299 255 220 204 189 192 189 188 191 181 171 172 189 224 267 284 285 157 215 245 238 253 271 278 268 256 249 246 247 248 248 249
58 58 63 57 48 45 30 20 8 8 7 352 296 230 213 200 195 180 169 171 161 153 147 150 161 70 5 54 221 220 223 300 302 323 319 313 278 259 257 256 256 256 255
50 55 58 55 45 36 27 22 13 350 339 330 290 275 197 177 185 178 167 162 156 151 155 149 152 161 234 225 164 116 110 67 342 356 13 342 3 338 315 292 288 277 271
46 48 44 42 34 23 30 29 30 32 22 335 225 176 146 146 148 152 157 146 136 135 150 154 154 180 185 204 143 105 97 105 1 333 21 2 0 1 5 14 9 360 346
42 41 38 34 30 26 30 29 30 30 33 32 34 86 117 120 155 165 160 150 141 100 151 140 150 163 159 141 131 131 125 90 45 13 30 35 354 349 344 2 19 26 25
38 34 30 31 29 17 24 28 33 27 42 39 39 53 84 102 131 156 152 150 135 74 95 131 136 128 125 122 113 91 75 73 51 4 10 53 352 339 339 346 4 17 21
43 41 38 34 31 21 21 27 31 33 41 36 35 35 46 63 80 131 148 146 144 147 129 112 99 94 84 85 88 97 120 106 97 27 351 51 9 8 7 344 354 11 15
Height
1547 1549 1550 1552 1553 1554 1555 1556 1557 1558 1559 1560 1560 1561 1561 1562 1563 1562 1562 1561 1560 1559 1559 1559 1559 1560 1561 1562 1563 1563 1564 1564 1565 1566 1567 1567 1568 1568 1568 1569 1569 1569 1569
1546 1547 1549 1551 1552 1554 1555 1556 1557 1558 1559 1559 1560 1561 1561 1562 1562 1562 1562 1561 1560 1559 1559 1558 1559 1559 1560 1561 1562 1563 1563 1564 1564 1565 1566 1567 1567 1568 1568 1568 1568 1569 1569
1543 1545 1547 1549 1551 1552 1554 1555 1556 1557 1558 1559 1560 1560 1561 1561 1561 1561 1561 1561 1560 1560 1559 1558 1558 1559 1559 1560 1560 1561 1562 1563 1564 1564 1565 1566 1567 1567 1567 1567 1567 1567 1568
1540 1542 1544 1546 1549 1550 1552 1553 1554 1555 1557 1558 1559 1559 1560 1560 1560 1560 1560 1560 1560 1560 1559 1559 1558 1558 1559 1559 1559 1560 1561 1562 1562 1563 1564 1565 1565 1566 1566 1566 1566 1566 1566
1538 1539 1541 1544 1546 1548 1549 1551 1553 1554 1555 1556 1557 1558 1558 1559 1559 1559 1559 1559 1559 1560 1559 1559 1559 1558 1558 1558 1559 1559 1560 1560 1561 1562 1563 1563 1564 1564 1565 1565 1565 1565 1565
1535 1536 1538 1541 1543 1545 1547 1549 1550 1552 1553 1554 1555 1556 1557 1557 1558 1558 1558 1558 1558 1559 1559 1559 1559 1558 1558 1558 1558 1558 1559 1559 1560 1561 1561 1562 1562 1563 1563 1563 1563 1563 1563
1531 1533 1535 1537 1539 1541 1543 1545 1547 1549 1550 1552 1553 1554 1555 1555 1555 1556 1556 1556 1557 1557 1558 1558 1558 1558 1558 1558 1558 1558 1558 1558 1559 1559 1560 1560 1561 1561 1561 1561 1561 1562 1562
1528 1529 1531 1533 1535 1537 1540 1542 1543 1545 1547 1548 1550 1551 1552 1553 1553 1553 1554 1554 1555 1556 1556 1557 1557 1558 1558 1558 1558 1558 1558 1558 1558 1558 1558 1559 1559 1559 1559 1559 1560 1560 1560
1524 1526 1527 1529 1531 1533 1535 1537 1539 1541 1543 1544 1546 1547 1548 1548 1549 1550 1550 1552 1552 1553 1554 1555 1555 1556 1557 1557 1557 1557 1557 1557 1557 1557 1557 1557 1557 1558 1558 1558 1558 1559 1559
1519 1522 1524 1525 1527 1529 1531 1532 1534 1536 1538 1540 1541 1543 1544 1545 1546 1547 1548 1549 1550 1551 1551 1552 1553 1554 1554 1555 1556 1556 1556 1556 1556 1556 1556 1556 1557 1557 1557 1557 1557 1558 1558
1512 1516 1519 1521 1523 1525 1527 1528 1530 1532 1533 1534 1536 1538 1539 1541 1542 1544 1545 1546 1547 1548 1549 1549 1550 1551 1552 1553 1553 1554 1555 1555 1555 1555 1555 1555 1556 1556 1556 1556 1556 1556 1556
1508 1510 1514 1517 1518 1521 1523 1525 1526 1527 1529 1530 1531 1533 1535 1536 1538 1539 1541 1542 1544 1545 1546 1546 1547 1548 1549 1550 1551 1551 1552 1553 1553 1553 1553 1554 1554 1554 1555 1555 1555 1555 1555
1505 1508 1511 1513 1514 1517 1520 1521 1523 1524 1525 1526 1528 1529 1531 1533 1534 1536 1537 1539 1540 1541 1542 1543 1544 1545 1546 1547 1548 1548 1549 1550 1551 1551 1551 1551 1552 1552 1553 1553 1553 1553 1553
1504 1506 1507 1510 1512 1514 1517 1518 1520 1521 1522 1524 1525 1527 1528 1529 1531 1532 1534 1535 1536 1537 1537 1539 1540 1541 1542 1543 1544 1545 1546 1547 1548 1548 1549 1549 1549 1550 1550 1550 1550 1551 1551
1503 1504 1505 1507 1509 1512 1514 1516 1518 1519 1520 1522 1523 1525 1526 1527 1528 1529 1530 1531 1533 1533 1533 1534 1536 1537 1538 1539 1540 1541 1543 1544 1545 1546 1546 1547 1547 1547 1547 1548 1548 1548 1548
1503 1504 1505 1506 1508 1510 1512 1514 1516 1517 1519 1520 1522 1523 1524 1525 1525 1526 1527 1528 1528 1529 1530 1530 1531 1532 1534 1535 1536 1538 1539 1540 1542 1542 1543 1543 1544 1544 1545 1545 1545 1545 1545
1504 1505 1505 1506 1508 1509 1511 1513 1514 1516 1517 1519 1520 1521 1522 1523 1524 1524 1524 1525 1525 1526 1526 1527 1527 1528 1529 1531 1532 1534 1535 1536 1538 1539 1540 1540 1541 1541 1542 1542 1542 1542 1542
1506 1506 1507 1508 1508 1510 1511 1512 1514 1515 1516 1517 1518 1519 1521 1521 1522 1522 1522 1522 1522 1523 1523 1523 1524 1525 1526 1527 1528 1530 1531 1532 1534 1535 1536 1536 1537 1537 1537 1538 1538 1538 1538
1508 1508 1508 1508 1509 1509 1510 1511 1513 1514 1515 1516 1517 1518 1519 1520 1520 1520 1520 1520 1520 1520 1520 1521 1521 1522 1522 1524 1525 1526 1528 1529 1530 1531 1531 1532 1532 1533 1533 1533 1533 1533 1534
1508 1508 1508 1508 1508 1509 1509 1510 1511 1512 1513 1515 1516 1517 1518 1518 1519 1519 1519 1518 1518 1518 1518 1519 1519 1519 1520 1521 1522 1523 1524 1525 1526 1527 1527 1527 1528 1528 1528 1529 1529 1528 1529
1509 1508 1508 1508 1508 1508 1508 1508 1509 1510 1511 1512 1513 1514 1515 1517 1517 1518 1518 1517 1517 1517 1517 1517 1518 1518 1518 1519 1520 1521 1521 1522 1522 1523 1523 1523 1524 1524 1524 1524 1524 1524 1524
1510 1509 1508 1508 1507 1507 1507 1507 1507 1507 1508 1509 1510 1512 1513 1514 1515 1516 1517 1517 1517 1517 1517 1517 1517 1518 1518 1518 1519 1519 1519 1520 1521 1521 1521 1521 1520 1520 1520 1520 1520 1520 1519
1512 1511 1509 1508 1507 1506 1506 1505 1504 1505 1505 1506 1507 1509 1511 1512 1514 1515 1516 1516 1517 1517 1517 1518 1518 1518 1518 1518 1518 1518 1518 1519 1519 1519 1519 1519 1518 1518 1518 1517 1517 1516 1516
1514 1513 1511 1510 1508 1507 1505 1504 1503 1503 1503 1504 1505 1506 1508 1510 1512 1514 1515 1516 1516 1517 1517 1518 1518 1519 1519 1519 1518 1519 1518 1519 1519 1519 1518 1519 1518 1517 1517 1516 1515 1514 1513
1517 1515 1513 1512 1510 1508 1506 1504 1503 1502 1502 1502 1503 1504 1506 1508 1510 1511 1513 1515 1516 1517 1518 1518 1519 1519 1519 1519 1519 1519 1519 1519 1519 1519 1519 1518 1518 1517 1517 1516 1515 1514 1513
1519 1517 1515 1513 1511 1509 1507 1505 1503 1502 1502 1501 1502 1502 1504 1505 1507 1509 1511 1513 1515 1516 1518 1518 1519 1519 1520 1520 1520 1520 1520 1520 1519 1519 1519 1519 1518 1517 1517 1517 1516 1514 1513